Weather History for Deelen, Netherlands

Change the Weather History Date:

Wednesday, October 23, 2013

  Actual Average Record
Temperature  
Mean Temperature 60 °F -  
Max Temperature 66 °F 48 °F 66 °F (2000)
Min Temperature 55 °F 39 °F 28 °F (2003)
Degree Days  
Heating Degree Days 4    
Growing Degree Days 10 (Base 50)    
Moisture  
Dew Point 56 °F    
Average Humidity 86    
Maximum Humidity 100    
Minimum Humidity 68    
Precipitation  
Precipitation 0.00 in - - ()
Sea Level Pressure  
Sea Level Pressure 29.60 in    
Wind  
Wind Speed 12 mph ()    
Max Wind Speed 25 mph    
Max Gust Speed 37 mph    
Visibility 6.2 miles    
Events Rain    
Averages and records for this station are not official NWS values.
T = Trace of Precipitation, MM = Missing Value Source: Averaged Metar Reports

Daily Weather History Graph

Daily Weather History Graph

Search for Another Location

Airport:

Trip Planner

Search our weather history database for the weather conditions in past years. The results will help you decide how hot, cold, wet, or windy it might be!

Date:

Astronomy

Oct. 23, 2013 Rise Set
Actual Time 8:15 AM CEST 6:25 PM CEST
Civil Twilight 7:40 AM CEST 7:00 PM CEST
Nautical Twilight 7:01 AM CEST 7:39 PM CEST
Astronomical Twilight 6:22 AM CEST 8:18 PM CEST
Moon 9:23 PM CEST (10/23) 12:40 PM CEST (10/23)
Length of Visible Light 11h 19m
Length of Day
10h 09m
Waning Gibbous, 81% of the Moon is Illuminated
Oct 23
Waning Gibbous
Oct 27
Last Quarter
Nov 3
New
Nov 10
First Quarter
Nov 17
Full

Hourly Weather History & Observations

Time (CEST) Temp. Dew Point Humidity Pressure Visibility Wind Dir Wind Speed Gust Speed Precip Events Conditions
12:25 AM 60.8 °F 59.0 °F 94% 29.53 in 6.2 mi SSE 9.2 mph - N/A   Overcast
12:55 AM 60.8 °F 59.0 °F 94% 29.53 in 6.2 mi South 11.5 mph - N/A   Overcast
1:25 AM 60.8 °F 59.0 °F 94% 29.53 in 6.2 mi South 11.5 mph - N/A   Overcast
1:55 AM 60.8 °F 59.0 °F 94% 29.56 in 6.2 mi South 11.5 mph - N/A   Overcast
2:25 AM 59.0 °F 59.0 °F 100% 29.56 in 6.2 mi South 10.4 mph - N/A   Overcast
2:55 AM 59.0 °F 59.0 °F 100% 29.56 in 6.2 mi South 10.4 mph - N/A   Overcast
3:25 AM 59.0 °F 57.2 °F 94% 29.56 in 6.2 mi South 10.4 mph - N/A   Overcast
3:55 AM 59.0 °F 57.2 °F 94% 29.56 in 6.2 mi South 11.5 mph - N/A   Overcast
4:25 AM 60.8 °F 59.0 °F 94% 29.56 in 6.2 mi South 11.5 mph - N/A   Overcast
4:55 AM 59.0 °F 57.2 °F 94% 29.53 in 6.2 mi South 11.5 mph - N/A   Mostly Cloudy
5:25 AM 59.0 °F 57.2 °F 94% 29.53 in 6.2 mi South 10.4 mph - N/A   Mostly Cloudy
5:55 AM 59.0 °F 57.2 °F 94% 29.53 in 6.2 mi South 9.2 mph - N/A   Mostly Cloudy
6:25 AM 59.0 °F 57.2 °F 94% 29.53 in 6.2 mi South 10.4 mph - N/A   Unknown
6:55 AM 59.0 °F 57.2 °F 94% 29.53 in 6.2 mi SSE 10.4 mph - N/A   Partly Cloudy
7:25 AM 59.0 °F 57.2 °F 94% 29.53 in 6.2 mi South 12.7 mph - N/A   Overcast
7:55 AM 59.0 °F 57.2 °F 94% 29.53 in 6.2 mi South 13.8 mph - N/A   Overcast
8:25 AM 59.0 °F 57.2 °F 94% 29.53 in 6.2 mi South 13.8 mph - N/A   Overcast
8:55 AM 59.0 °F 57.2 °F 94% 29.53 in 6.2 mi South 13.8 mph - N/A   Mostly Cloudy
9:25 AM 60.8 °F 57.2 °F 88% 29.56 in 6.2 mi South 15.0 mph - N/A   Mostly Cloudy
9:55 AM 60.8 °F 57.2 °F 88% 29.56 in 6.2 mi South 15.0 mph - N/A   Overcast
10:25 AM 60.8 °F 57.2 °F 88% 29.56 in 6.2 mi South 16.1 mph - N/A   Overcast
10:55 AM 62.6 °F 57.2 °F 82% 29.56 in 6.2 mi South 17.3 mph - N/A   Overcast
11:25 AM 64.4 °F 57.2 °F 77% 29.56 in 6.2 mi South 17.3 mph - N/A   Mostly Cloudy
11:55 AM 64.4 °F 57.2 °F 77% 29.56 in 6.2 mi SSW 21.9 mph 36.8 mph N/A   Overcast
12:04 PM 64.4 °F 57.2 °F 77% 29.56 in 6.2 mi SSW 20.7 mph - N/A   Mostly Cloudy
12:25 PM 66.2 °F 55.4 °F 68% 29.56 in 6.2 mi SSW 25.3 mph - N/A   Partly Cloudy
12:55 PM 64.4 °F 55.4 °F 73% 29.56 in 6.2 mi SSW 23.0 mph - N/A   Mostly Cloudy
1:25 PM 64.4 °F 55.4 °F 73% 29.56 in 6.2 mi SSW 19.6 mph 31.1 mph N/A   Overcast
1:55 PM 64.4 °F 55.4 °F 73% 29.56 in 6.2 mi SSW 16.1 mph - N/A   Mostly Cloudy
2:25 PM 64.4 °F 55.4 °F 73% 29.56 in 6.2 mi SSW 17.3 mph - N/A   Mostly Cloudy
2:55 PM 64.4 °F 55.4 °F 73% 29.59 in 6.2 mi SSW 19.6 mph - N/A   Mostly Cloudy
3:25 PM 64.4 °F 53.6 °F 68% 29.59 in 6.2 mi SSW 20.7 mph - N/A   Overcast
3:55 PM 64.4 °F 53.6 °F 68% 29.59 in 6.2 mi SSW 20.7 mph - N/A   Overcast
4:25 PM 62.6 °F 53.6 °F 72% 29.59 in 6.2 mi SSW 23.0 mph 34.5 mph N/A Rain Light Rain
4:55 PM 62.6 °F 53.6 °F 72% 29.62 in 6.2 mi SSW 15.0 mph - N/A   Mostly Cloudy
5:25 PM 60.8 °F 55.4 °F 82% 29.62 in 6.2 mi SSW 20.7 mph - N/A   Mostly Cloudy
5:55 PM 59.0 °F 53.6 °F 82% 29.65 in 6.2 mi SSW 18.4 mph - N/A   Unknown
6:25 PM 59.0 °F 53.6 °F 82% 29.65 in 6.2 mi SSW 16.1 mph - N/A   Unknown
6:55 PM 59.0 °F 53.6 °F 82% 29.68 in 6.2 mi SSW 13.8 mph - N/A   Partly Cloudy
7:25 PM 59.0 °F 53.6 °F 82% 29.68 in 6.2 mi SSW 13.8 mph - N/A   Unknown
7:55 PM 57.2 °F 53.6 °F 88% 29.71 in 6.2 mi SSW 11.5 mph - N/A   Partly Cloudy
8:25 PM 57.2 °F 53.6 °F 88% 29.71 in 6.2 mi SSW 11.5 mph - N/A   Unknown
8:55 PM 55.4 °F 53.6 °F 94% 29.74 in 6.2 mi SSW 6.9 mph - N/A   Partly Cloudy
9:25 PM 55.4 °F 53.6 °F 94% 29.74 in 6.2 mi SSW 6.9 mph - N/A   Unknown
9:55 PM 55.4 °F 53.6 °F 94% 29.77 in 6.2 mi SW 8.1 mph - N/A   Unknown
10:25 PM 55.4 °F 53.6 °F 94% 29.77 in 6.2 mi SSW 6.9 mph - N/A   Overcast
10:55 PM 55.4 °F 53.6 °F 94% 29.80 in 6.2 mi SW 10.4 mph - N/A   Mostly Cloudy
11:25 PM 55.4 °F 53.6 °F 94% 29.80 in 6.2 mi SW 10.4 mph - N/A   Overcast
11:55 PM 55.4 °F 53.6 °F 94% 29.80 in 6.2 mi SW 10.4 mph - N/A   Overcast